Location: Burtsch�tz
(51.0528°N, 12.1764°E)
Time: 06:21:00
(UTC+00:00)

CZ-4C R/B - Pass Details

Date: 29 October 2020
Orbit: 624 x 1378 km, 63.4° (Epoch: 01 December)

Event Time Altitude Azimuth Distance (km) Brightness Sun altitude
Rises 16:50:45 0° 304° (NW) 3,516 6.2 -10.0°
Reaches altitude 10° 16:53:23 10° 315° (NW) 2,689 5.3 -10.4°
Maximum altitude 16:59:07 33° 18° (NNE) 1,745 3.6 -11.3°
Enters shadow 17:04:27 15° 74° (ENE) 2,765 4.2 -12.1°
